Location: ?????????
(54.7630°N, 39.4991°E)
Time: 18:18:15
(UTC+00:00)

COSMOS 2428 - Pass Details

Date: 14 April 2026
Orbit: 844 x 855 km, 70.9° (Epoch: 16 May)

Event Time Altitude Azimuth Distance (km) Brightness Sun altitude
Rises 18:55:42 0° 231° (SW) 3,418 5.9 -18.7°
Reaches altitude 10° 18:58:13 10° 236° (SW) 2,486 5.2 -18.9°
Maximum altitude 19:03:47 51° 312° (NW) 1,066 3.6 -19.4°
Drops below altitude 10° 19:09:23 10° 29° (NNE) 2,499 5.5 -19.8°
Sets 19:11:56 0° 34° (NE) 3,437 6.2 -20.0°
